This is the latest recevied weather packets stored in our database for station/object N1LJK-13. If no packets are shown the sender has not sent any weather packets the latest 10 day(s).
| Time | Temp. | Humidity | Pressure | Rain* | Wind** | Luminosity | Snow |
|---|---|---|---|---|---|---|---|
| 1777122331 | 12.78° C | 98% | 1020.3 hPa | 0 mm | - | - | - |
| 1777121131 | 11.67° C | 98% | 1020.2 hPa | 0 mm | - | - | - |
| 1777119930 | 8.89° C | 98% | 1020.2 hPa | 0 mm | - | - | - |
| 1777118730 | 8.33° C | 98% | 1020.2 hPa | 0 mm | - | - | - |
| 1777117530 | 7.22° C | 98% | 1020.4 hPa | 0 mm | - | - | - |
| 1777116331 | 3.89° C | 98% | 1020.5 hPa | 0 mm | - | - | - |
| 1777115162 | 0.56° C | 98% | 1020.3 hPa | 0 mm | - | - | - |
| 1777115131 | 0.56° C | 98% | 1020.3 hPa | 0 mm | - | - | - |
| 1777113930 | -0.56° C | 98% | 1020.1 hPa | 0 mm | - | - | - |
| 1777112731 | -0.56° C | 98% | 1020.1 hPa | 0 mm | - | - | - |
| 1777111530 | -1.67° C | 98% | 1019.8 hPa | 0 mm | - | - | - |
| 1777110330 | -2.22° C | 98% | 1019.8 hPa | 0 mm | - | - | - |
| 1777109130 | -2.22° C | 98% | 1019.7 hPa | 0 mm | - | - | - |
| 1777107930 | -2.22° C | 98% | 1019.5 hPa | 0 mm | - | - | - |
| 1777106730 | -2.22° C | 98% | 1019.2 hPa | 0 mm | - | - | - |
| 1777105531 | -2.22° C | 98% | 1019.3 hPa | 0 mm | - | - | - |
| 1777104331 | -1.67° C | 98% | 1019.2 hPa | 0 mm | - | - | - |
| 1777103167 | -1.67° C | 98% | 1019 hPa | 0 mm | - | - | - |
| 1777103130 | -1.67° C | 98% | 1019 hPa | 0 mm | - | - | - |
| 1777101931 | -2.22° C | 98% | 1019 hPa | 0 mm | - | - | - |
| 1777100730 | -2.22° C | 98% | 1018.8 hPa | 0 mm | - | - | - |
| 1777099530 | -1.67° C | 98% | 1018.8 hPa | 0 mm | - | - | - |
| 1777098330 | -1.67° C | 98% | 1018.7 hPa | 0 mm | - | - | - |
| 1777097130 | -1.67° C | 98% | 1018.5 hPa | 0 mm | - | - | - |
| 1777096016 | -1.11° C | 98% | 1018.5 hPa | 0 mm | - | - | - |
* Rain latest hour (hover to see other rain measurements)
** Current wind speed in m/s (hover to see current wind gust speed)